Weather History for Kindakun Rocks, BC

Change the Weather History Date:

Sunday, January 6, 2013

  Actual Average Record
Temperature  
Mean Temperature 42 °F -  
Max Temperature 46 °F - - ()
Min Temperature 38 °F - - ()
Degree Days  
Heating Degree Days 23    
Moisture  
Dew Point 38 °F    
Average Humidity 81    
Maximum Humidity 95    
Minimum Humidity 65    
Precipitation  
Precipitation 0.04 in - - ()
Sea Level Pressure  
Sea Level Pressure 29.65 in    
Wind  
Wind Speed 11 mph ()    
Max Wind Speed 22 mph    
Max Gust Speed 23 mph    
T = Trace of Precipitation, MM = Missing Value Source: Averaged Metar Reports

Daily Weather History Graph

Daily Weather History Graph

Search for Another Location

Airport:

Trip Planner

Search our weather history database for the weather conditions in past years. The results will help you decide how hot, cold, wet, or windy it might be!

Date:

Astronomy

Jan. 06, 2013 Rise Set
Actual Time 9:04 AM PST 4:50 PM PST
Civil Twilight 8:22 AM PST 5:32 PM PST
Nautical Twilight 7:37 AM PST 6:16 PM PST
Astronomical Twilight 6:55 AM PST 6:58 PM PST
Moon 3:08 AM PST (1/6) 12:38 PM PST (1/6)
Length of Visible Light 9h 09m
Length of Day
7h 45m
Waning Crescent, 32% of the Moon is Illuminated
Jan 6
Waning Crescent
Jan 11
New
Jan 18
First Quarter
Jan 26
Full
Feb 3
Last Quarter

Hourly Weather History & Observations

Time (PST) Temp. Windchill Dew Point Humidity Pressure Visibility Wind Dir Wind Speed Gust Speed Precip Events Conditions
12:00 AM 40.5 °F 35.8 °F 37.6 °F 89% 29.66 in - SSE 6.9 mph - 0.02 in   Unknown
1:00 AM 43 °F - 39 °F 80% 29.68 in - SW 10.4 mph - -  
1:00 AM 42.6 °F 36.8 °F 38.8 °F 86% 29.68 in - SW 10.4 mph - N/A   Unknown
2:00 AM 42.4 °F 33.8 °F 37.6 °F 83% 29.70 in - West 19.6 mph - N/A   Unknown
3:00 AM 42.3 °F 35.1 °F 37.2 °F 82% 29.73 in - West 13.8 mph - N/A   Unknown
4:00 AM 43 °F - 36 °F 70% 29.76 in - West 12.7 mph - -  
4:00 AM 43.0 °F 36.4 °F 36.5 °F 78% 29.76 in - West 12.7 mph - N/A   Unknown
5:00 AM 42.6 °F 37.8 °F 36.9 °F 80% 29.74 in - West 8.1 mph - N/A   Unknown
7:00 AM 42 °F - 37 °F 78% 29.74 in - SSW 8.1 mph - -  
8:00 AM 41.4 °F 33.3 °F 36.9 °F 84% 29.73 in - South 16.1 mph - N/A   Unknown
9:00 AM 41.9 °F 35.4 °F 37.6 °F 85% 29.73 in - SSW 11.5 mph - N/A   Unknown
10:00 AM 42 °F - 37 °F 75% 29.74 in - SSE 16.1 mph - -  
11:00 AM 43.2 °F 36.6 °F 35.8 °F 75% 29.75 in - SSE 12.7 mph - N/A   Unknown
12:00 PM 43.2 °F 36.2 °F 35.6 °F 75% 29.73 in - SSE 13.8 mph 20.7 mph N/A   Unknown
1:00 PM 44 °F - 36 °F 65% 29.70 in - South 15.0 mph - -  
1:00 PM 43.5 °F 36.4 °F 36.1 °F 75% 29.70 in - South 15.0 mph - N/A   Unknown
2:00 PM 43.9 °F 37.5 °F 35.2 °F 72% 29.67 in - SSE 12.7 mph 19.6 mph N/A   Unknown
4:00 PM 43 °F - 38 °F 74% 29.62 in - ESE 8.1 mph - -  
4:00 PM 42.8 °F 38.0 °F 37.6 °F 82% 29.62 in - ESE 8.1 mph - 0.02 in   Unknown
5:00 PM 43.9 °F 38.3 °F 39.0 °F 83% 29.60 in - SE 10.4 mph 17.3 mph 0.02 in   Unknown
6:00 PM 44.1 °F 37.4 °F 39.6 °F 84% 29.52 in - ESE 13.8 mph 23.0 mph 0.02 in   Unknown
7:00 PM 46 °F - 40 °F 74% 29.52 in - South 15.0 mph - -  
7:00 PM 45.5 °F 38.9 °F 40.5 °F 83% 29.52 in - South 15.0 mph 21.9 mph N/A   Unknown
8:00 PM 44.6 °F 36.1 °F 41.9 °F 90% 29.50 in - South 21.9 mph - N/A   Unknown
10:00 PM 45 °F - 44 °F 92% 29.45 in - South 17.3 mph - -  
10:00 PM 45.1 °F 37.9 °F 43.5 °F 94% 29.45 in - South 17.3 mph - N/A   Unknown
11:00 PM 45.3 °F 37.8 °F 43.9 °F 95% 29.46 in - South 18.4 mph - N/A   Unknown